Flag Weather past 2 weeks in Faro, Portugal

Now
63 °F

Scattered clouds.


Feels Like: 63 °F
Forecast: N/A
Wind: 17 mph from South

Location: Faro / Aeroporto

Current Time: Nov 26, 2014 at 3:45:33 PM

Latest Report: Nov 26, 2014 at 3:00 PM


Visibility: N/A

Pressure: 29.77 "Hg

Humidity: 77%

Dew point: 55 °F

Location of FaroLocation

Historic Weather in Faro — Graph

°F

Faro temperature yesterday

Maximum temperature yesterday: 70 °F (at 11:30 AM)
Minimum temperature yesterday: 55 °F (at 1:00 AM)
Average temperature yesterday: 59 °F

Past Weeks' High & Low Weather Summary

 TemperatureHumidityPressure
High72 °F (Nov 22, 12:00 PM)100% (Nov 12, 5:00 AM)30.12 "Hg (Nov 12, 5:00 AM)
Low50 °F (Nov 26, 3:00 AM)49% (Nov 17, 1:00 PM)29.68 "Hg (Nov 22, 2:00 PM)
Average62 °F85%29.90 "Hg
* Reported Nov 11 2:00 PM — Nov 26 2:30 PM, Faro, Weather by CustomWeather, © 2014

Note: Actual official high and low records may vary slightly from our data, if they occured in-between our weather recording intervals... More about our weather records

Advertising

Faro weather history for previous 24 hours

 ConditionsComfort  
Time TempWeatherWind HumidityBarometerVisibility
2:30 PM
Nov 26
63 °FLight rain. Partly sunny.17 mph77%29.77 "HgN/A
2:00 PM64 °FPassing clouds.14 mph78%29.80 "HgN/A
1:30 PM63 °FPassing clouds.15 mph83%29.83 "HgN/A
1:00 PM63 °FScattered clouds.14 mph77%29.83 "HgN/A
12:30 PM61 °FLight rain. Broken clouds.12 mph88%29.86 "HgN/A
12:00 PM61 °FScattered clouds.7 mph88%29.89 "HgN/A
11:00 AM59 °FSunny.8 mph82%29.92 "Hg10 mi
10:30 AM59 °FSunny.5 mph77%29.95 "Hg10 mi
10:00 AM57 °FPassing clouds.6 mph82%29.95 "HgN/A
9:30 AM55 °FSunny.6 mph88%29.95 "Hg10 mi
9:00 AM54 °FPassing clouds.7 mph88%29.95 "HgN/A
8:30 AM52 °FPassing clouds.6 mph94%29.95 "HgN/A
8:00 AM52 °FPassing clouds.6 mph88%29.95 "HgN/A
7:30 AM52 °FSunny.3 mph88%29.98 "Hg10 mi
7:00 AM52 °FClear.7 mph88%29.98 "Hg10 mi
6:30 AM50 °FClear.3 mph94%29.98 "Hg10 mi
6:00 AM50 °FClear.3 mph94%29.98 "Hg10 mi
5:30 AM50 °FClear.No wind94%29.98 "Hg10 mi
5:00 AM50 °FClear.No wind94%29.98 "Hg10 mi
4:30 AM50 °FClear.3 mph94%29.98 "Hg10 mi
4:00 AM50 °FClear.5 mph94%30.01 "Hg10 mi
3:00 AM50 °FClear.3 mph94%30.01 "Hg10 mi
2:30 AM52 °FClear.6 mph88%30.04 "Hg10 mi
2:00 AM52 °FClear.8 mph94%30.04 "Hg10 mi
1:30 AM54 °FClear.7 mph88%30.04 "Hg10 mi
1:00 AM54 °FClear.6 mph88%30.04 "Hg10 mi
12:30 AM54 °FClear.6 mph94%30.07 "Hg10 mi
12:00 AM55 °FClear.5 mph88%30.07 "Hg10 mi
11:30 PM
Nov 25
55 °FClear.5 mph88%30.07 "Hg10 mi
11:00 PM55 °FClear.7 mph88%30.07 "Hg10 mi
10:30 PM55 °FClear.5 mph94%30.07 "Hg10 mi
10:00 PM55 °FPassing clouds.6 mph94%30.09 "HgN/A
9:30 PM57 °FPassing clouds.7 mph88%30.07 "HgN/A
9:00 PM57 °FPassing clouds.7 mph88%30.07 "HgN/A
8:30 PM57 °FPassing clouds.9 mph88%30.07 "HgN/A
8:00 PM57 °FPassing clouds.8 mph94%30.07 "HgN/A
7:30 PM57 °FPassing clouds.9 mph94%30.07 "HgN/A
7:00 PM59 °FPassing clouds.8 mph88%30.07 "HgN/A
6:30 PM59 °FPassing clouds.8 mph88%30.07 "HgN/A
6:00 PM61 °FPassing clouds.6 mph83%30.07 "HgN/A
5:30 PM63 °FPassing clouds.5 mph77%30.07 "HgN/A
5:00 PM64 °FScattered clouds.9 mph68%30.07 "HgN/A
4:30 PM64 °FScattered clouds.9 mph73%30.07 "HgN/A
4:00 PM64 °FPartly sunny.9 mph78%30.07 "HgN/A
3:30 PM64 °FPartly sunny.10 mph78%30.07 "HgN/A
3:00 PM64 °FPartly sunny.13 mph83%30.07 "HgN/A
Weather by CustomWeather, © 2014

See weather overviewHow to use our weather pages